Actual water levels and discharges of Elbe river

Guaranteed water level and forecast    Ústí nad Labem-Střekov

Guaranteed water level
170 cm
on 20.06.2024 more information
Forecast
170 cm
on 21.06.2024 06:00
Tendency
steady state
on 21.06.2024 tendency methodology
Assumption
165 cm
on 22.06.2024 06:00
(Source data ČHMÚ a Povodí Labe)

Děčín

Date and time (UTC) H (cm) Q (m³/s)
20. 6. 2024 12:50 144 161
20. 6. 2024 12:00 140 155
20. 6. 2024 11:00 138 152
20. 6. 2024 10:00 141 156
20. 6. 2024 09:00 143 160
20. 6. 2024 08:00 145 163
20. 6. 2024 07:00 146 165
20. 6. 2024 06:00 147 167
20. 6. 2024 05:00 149 170
20. 6. 2024 04:00 151 173
20. 6. 2024 03:00 153 177
20. 6. 2024 02:00 154 179
20. 6. 2024 01:00 154 179
20. 6. 2024 00:00 153 177

H - water level, Q - discharge

Ústí nad Labem

Date and time (UTC) H (cm) Q (m³/s)
20. 6. 2024 12:50 192 176
20. 6. 2024 12:00 191 174
20. 6. 2024 11:00 193 178
20. 6. 2024 10:00 192 176
20. 6. 2024 09:00 187 167
20. 6. 2024 08:00 166 132
20. 6. 2024 07:00 167 134
20. 6. 2024 06:00 168 135
20. 6. 2024 05:00 174 145
20. 6. 2024 04:00 178 151
20. 6. 2024 03:00 178 151
20. 6. 2024 02:00 178 151
20. 6. 2024 01:00 179 153
20. 6. 2024 00:00 180 155

H - water level, Q - discharge
more information

Mělník

Date and time (UTC) H (cm) Q (m³/s)
20. 6. 2024 12:50 267 -
20. 6. 2024 12:00 269 -
20. 6. 2024 11:00 267 -
20. 6. 2024 10:00 265 -
20. 6. 2024 09:00 264 -
20. 6. 2024 08:00 263 -
20. 6. 2024 07:00 260 -
20. 6. 2024 06:00 266 105
20. 6. 2024 05:00 271 -
20. 6. 2024 04:00 266 -
20. 6. 2024 03:00 263 -
20. 6. 2024 02:00 261 -
20. 6. 2024 01:00 267 -
20. 6. 2024 00:00 270 -

H - water level, Q - discharge
more information

Kostelec nad Labem

Date and time (UTC) H (cm) Q (m³/s)
20. 6. 2024 12:50 395 -
20. 6. 2024 12:00 394 11
20. 6. 2024 11:00 399 18
20. 6. 2024 10:00 395 23
20. 6. 2024 09:00 397 20
20. 6. 2024 08:00 396 14
20. 6. 2024 07:00 397 15
20. 6. 2024 06:00 396 15
20. 6. 2024 05:00 395 15
20. 6. 2024 04:00 400 19
20. 6. 2024 03:00 399 31
20. 6. 2024 02:00 396 21
20. 6. 2024 01:00 397 16
20. 6. 2024 00:00 394 13

H - water level, Q - discharge
more information

Přelouč

Date and time (UTC) H (cm) Q (m³/s)
20. 6. 2024 12:50 38 14.7
20. 6. 2024 12:00 37 14
20. 6. 2024 11:00 36 14
20. 6. 2024 10:00 42 17
20. 6. 2024 09:00 49 21
20. 6. 2024 08:00 44 18
20. 6. 2024 07:00 29 11
20. 6. 2024 06:00 27 10
20. 6. 2024 05:00 35 13
20. 6. 2024 04:00 40 16
20. 6. 2024 03:00 40 16
20. 6. 2024 02:00 38 15
20. 6. 2024 01:00 37 14
20. 6. 2024 00:00 35 13

H - water level, Q - discharge
more information

Němčice

Date and time (UTC) H (cm) Q (m³/s)
20. 6. 2024 12:50 61 12.1
20. 6. 2024 12:00 61 12
20. 6. 2024 11:00 62 12
20. 6. 2024 10:00 62 12
20. 6. 2024 09:00 64 13
20. 6. 2024 08:00 63 13
20. 6. 2024 07:00 62 12
20. 6. 2024 06:00 66 14
20. 6. 2024 05:00 66 14
20. 6. 2024 04:00 61 12
20. 6. 2024 03:00 58 11
20. 6. 2024 02:00 61 12
20. 6. 2024 01:00 61 12
20. 6. 2024 00:00 61 12

H - water level, Q - discharge
Source data
Labe Basin Vltava Basin Povodí Moravy ČHMÚ
Po vodě ekologicky, levně a v pohodě
backgroung on backgroung off